TIME,�����g�[���mL�n,�t���O,�����g�[��mL�n,�t���O,�����g�[���mMJ�n,�t���O,�����g�[��mMJ�n,�t���O
2003/1/1 0:00,0.002670525,0,0,0,0.39203307,0,0,0
2003/1/1 0:15,0.005235945,0,0,0,0.768636726,0,0,0
2003/1/1 0:30,0,0,0,0,0,0,0,0
2003/1/1 0:45,0,0,0,0,0,0,0,0
2003/1/1 1:00,0,0,0,0,0,0,0,0
2003/1/1 1:15,0,0,0,0,0,0,0,0
2003/1/1 1:30,0,0,0,0,0,0,0,0
2003/1/1 1:45,0,0,0,0,0,0,0,0
2003/1/1 2:00,0,0,0,0,0,0,0,0
2003/1/1 2:15,0,0,0,0,0,0,0,0
2003/1/1 2:30,0,0,0,0,0,0,0,0
2003/1/1 2:45,0,0,0,0,0,0,0,0
2003/1/1 3:00,0,0,0,0,0,0,0,0
2003/1/1 3:15,0,0,0,0,0,0,0,0
2003/1/1 3:30,0,0,0,0,0,0,0,0
2003/1/1 3:45,0,0,0,0,0,0,0,0
2003/1/1 4:00,0,0,0,0,0,0,0,0
2003/1/1 4:15,0,0,0,0,0,0,0,0
2003/1/1 4:30,0,0,0,0,0,0,0,0
2003/1/1 4:45,0,0,0,0,0,0,0,0
2003/1/1 5:00,0,0,0,0,0,0,0,0
2003/1/1 5:15,0,0,0,0,0,0,0,0
2003/1/1 5:30,0,0,0,0,0,0,0,0
2003/1/1 5:45,0,0,0,0,0,0,0,0
2003/1/1 6:00,0,0,0,0,0,0,0,0
2003/1/1 6:15,0,0,0,0,0,0,0,0
2003/1/1 6:30,0,0,0,0,0,0,0,0
2003/1/1 6:45,0,0,0,0,0,0,0,0
2003/1/1 7:00,0,0,0,0,0,0,0,0
2003/1/1 7:15,0.010179097,0,0,0,1.494291513,0,0,0
2003/1/1 7:30,0.011126115,0,0.006487072,0,1.633313682,0,0.952302243,0
2003/1/1 7:45,0.011125042,0,0.015629968,0,1.633156239,0,2.294479229,0
2003/1/1 8:00,0.011126115,0,0.0156315,0,1.633313682,0,2.2947042,0
2003/1/1 8:15,0.011126115,0,0.007097007,0,1.633313682,0,1.041840701,0
2003/1/1 8:30,0.009263183,0,0.005947633,0,1.359835191,0,0.873112451,0
2003/1/1 8:45,0.010385017,0,0.005947633,0,1.524520569,0,0.873112451,0
2003/1/1 9:00,0.010706767,0,0,0,1.571753469,0,0,0
2003/1/1 9:15,0.009783345,0,0,0,1.436195046,0,0,0
2003/1/1 9:30,0.00408408,0,0.005555312,0,0.599542944,0,0.815519875,0
2003/1/1 9:45,0.003984338,0,0.005947633,0,0.584900745,0,0.873112451,0
2003/1/1 10:00,0.003966105,0,0.005949165,0,0.582224214,0,0.873337422,0
2003/1/1 10:15,0.003967178,0,0.005947633,0,0.582381657,0,0.873112451,0
2003/1/1 10:30,0.003967178,0,0.005947633,0,0.582381657,0,0.873112451,0
2003/1/1 10:45,0.003966105,0,0.005949165,0,0.582224214,0,0.873337422,0
2003/1/1 11:00,0.003967178,0,0.003964578,0,0.582381657,0,0.581999977,0
2003/1/1 11:15,0.003966105,0,0,0,0.582224214,0,0,0
2003/1/1 11:30,0.003967178,0,0,0,0.582381657,0,0,0
2003/1/1 11:45,0.003966105,0,0,0,0.582224214,0,0,0
2003/1/1 12:00,0.003967178,0,0.008635637,0,0.582381657,0,1.267711585,0
2003/1/1 12:15,0.003966105,0,0.00601353,0,0.582224214,0,0.882786204,0
2003/1/1 12:30,0.003967178,0,0.005941502,0,0.582381657,0,0.872212567,0
2003/1/1 12:45,0.003966105,0,0,0,0.582224214,0,0,0
2003/1/1 13:00,0.003967178,0,0,0,0.582381657,0,0,0
2003/1/1 13:15,0.00552981,0,0,0,0.811776108,0,0,0
2003/1/1 13:30,0.009775838,0,0,0,1.435092945,0,0,0
2003/1/1 13:45,0.006236588,0,0,0,0.915531045,0,0,0
2003/1/1 14:00,0.005442937,0,0,0,0.799023225,0,0,0
2003/1/1 14:15,0.008389095,0,0,0,1.231519146,0,0,0
2003/1/1 14:30,0.006604455,0,0,0,0.969533994,0,0,0
2003/1/1 14:45,0.007170735,0,0,0,1.052663898,0,0,0
2003/1/1 15:00,0.007652288,0,0,0,1.123355805,0,0,0
2003/1/1 15:15,0.00914628,0,0,0,1.342673904,0,0,0
2003/1/1 15:30,0.009234225,0,0,0,1.35558423,0,0,0
2003/1/1 15:45,0.010508355,0,0,0,1.542626514,0,0,0
2003/1/1 16:00,0.0106821,0,0,0,1.56813228,0,0,0
2003/1/1 16:15,0.01041612,0,0,0,1.529086416,0,0,0
2003/1/1 16:30,0.010293855,0,0,0,1.511137914,0,0,0
2003/1/1 16:45,0.009700763,0,0,0,1.424071935,0,0,0
2003/1/1 17:00,0.010521225,0,0,0,1.54451583,0,0,0
2003/1/1 17:15,0.010153357,0,0,0,1.490512881,0,0,0
2003/1/1 17:30,0.01024023,0,0,0,1.503265764,0,0,0
2003/1/1 17:45,0.01022736,0,0,0,1.501376448,0,0,0
2003/1/1 18:00,0.010910543,0,0.022231978,0,1.601667639,0,3.263654297,0
2003/1/1 18:15,0.010928775,0,0.013984063,0,1.60434417,0,2.052860375,0
2003/1/1 18:30,0.011125042,0,0.016889682,0,1.633156239,0,2.479405391,0
2003/1/1 18:45,0.01112397,0,0.012827025,0,1.632998796,0,1.88300727,0
2003/1/1 19:00,0.011125042,0,0.00728244,0,1.633156239,0,1.069062192,0
2003/1/1 19:15,0.01112397,0,0.008339865,0,1.632998796,0,1.224292182,0
2003/1/1 19:30,0.011125042,0,0.008975852,0,1.633156239,0,1.317655147,0
2003/1/1 19:45,0.01033461,0,0.00758894,0,1.517120748,0,1.114056392,0
2003/1/1 20:00,0.01009866,0,0.006762922,0,1.482483288,0,0.992797023,0
2003/1/1 20:15,0.009100163,0,0.006244937,0,1.335903855,0,0.916756825,0
2003/1/1 20:30,0.009259965,0,0,0,1.359362862,0,0,0
2003/1/1 20:45,0.010704623,0,0,0,1.571438583,0,0,0
2003/1/1 21:00,0.00863577,0,0,0,1.267731036,0,0,0
2003/1/1 21:15,0.004773697,0,0,0,0.700778793,0,0,0
2003/1/1 21:30,0.005253105,0,0,0,0.771155814,0,0,0
2003/1/1 21:45,0.007214708,0,0,0,1.059119061,0,0,0
2003/1/1 22:00,0.007403468,0,0,0,1.086829029,0,0,0
2003/1/1 22:15,0.007483905,0,0,0,1.098637254,0,0,0
2003/1/1 22:30,0.008587508,0,0,0,1.260646101,0,0,0
2003/1/1 22:45,0.008452373,0,0,0,1.240808283,0,0,0
2003/1/1 23:00,0.010412903,0,0,0,1.528614087,0,0,0
2003/1/1 23:15,0.010056832,0,0,0,1.476343011,0,0,0
2003/1/1 23:30,0.010968458,0,0,0,1.610169561,0,0,0
2003/1/1 23:45,0.01056627,0,0,0,1.551128436,0,0,0
2003/1/2 0:00,0.011125042,0,0,0,1.633156239,0,0,0
2003/1/2 0:15,0.010765755,0,0,0,1.580412834,0,0,0
2003/1/2 0:30,0.011126115,0,0,0,1.633313682,0,0,0
2003/1/2 0:45,0.010950225,0,0,0,1.60749303,0,0,0
2003/1/2 1:00,0.011125042,0,0,0,1.633156239,0,0,0
2003/1/2 1:15,0.007377728,0,0,0,1.083050397,0,0,0
2003/1/2 1:30,0,0,0,0,0,0,0,0
2003/1/2 1:45,0,0,0,0,0,0,0,0
2003/1/2 2:00,0,0,0,0,0,0,0,0
2003/1/2 2:15,0,0,0,0,0,0,0,0
2003/1/2 2:30,0,0,0,0,0,0,0,0
2003/1/2 2:45,0,0,0,0,0,0,0,0
2003/1/2 3:00,0,0,0,0,0,0,0,0
2003/1/2 3:15,0,0,0,0,0,0,0,0
2003/1/2 3:30,0,0,0,0,0,0,0,0
2003/1/2 3:45,0,0,0,0,0,0,0,0
2003/1/2 4:00,0,0,0,0,0,0,0,0
2003/1/2 4:15,0,0,0,0,0,0,0,0
2003/1/2 4:30,0,0,0,0,0,0,0,0
2003/1/2 4:45,0,0,0,0,0,0,0,0
2003/1/2 5:00,0,0,0,0,0,0,0,0
2003/1/2 5:15,0,0,0,0,0,0,0,0
2003/1/2 5:30,0,0,0,0,0,0,0,0
2003/1/2 5:45,0,0,0,0,0,0,0,0
2003/1/2 6:00,0,0,0,0,0,0,0,0
2003/1/2 6:15,0,0,0,0,0,0,0,0
2003/1/2 6:30,0,0,0,0,0,0,0,0
2003/1/2 6:45,0,0,0,0,0,0,0,0
2003/1/2 7:00,0,0,0,0,0,0,0,0
2003/1/2 7:15,0,0,0,0,0,0,0,0
2003/1/2 7:30,0,0,0,0,0,0,0,0
2003/1/2 7:45,0,0,0,0,0,0,0,0
2003/1/2 8:00,0.005982405,0,0,0,0.878217054,0,0,0
2003/1/2 8:15,0.011127188,0,0,0,1.633471125,0,0,0
2003/1/2 8:30,0.011126115,0,0,0,1.633313682,0,0,0
2003/1/2 8:45,0.011127188,0,0.002946998,0,1.633471125,0,0.432619233,0
2003/1/2 9:00,0.011126115,0,0.03250739,0,1.633313682,0,4.772084854,0
2003/1/2 9:15,0.011126115,0,0.03209055,0,1.633313682,0,4.710892741,0
2003/1/2 9:30,0.011126115,0,0.028027893,0,1.633313682,0,4.114494619,0
2003/1/2 9:45,0.011125042,0,0.009273157,0,1.633156239,0,1.361299521,0
2003/1/2 10:00,0.011126115,0,0,0,1.633313682,0,0,0
2003/1/2 10:15,0.00933075,0,0,0,1.3697541,0,0,0
2003/1/2 10:30,0.008681888,0,0,0,1.274501085,0,0,0
2003/1/2 10:45,0.009370433,0,0,0,1.375579491,0,0,0
2003/1/2 11:00,0.009359708,0,0,0,1.374005061,0,0,0
2003/1/2 11:15,0.008591798,0,0,0,1.261275873,0,0,0
2003/1/2 11:30,0.008355848,0,0,0,1.226638413,0,0,0
2003/1/2 11:45,0.004865933,0,0,0,0.714318891,0,0,0
2003/1/2 12:00,0.005149073,0,0,0,0.755883843,0,0,0
2003/1/2 12:15,0.002665163,0,0,0,0.391245855,0,0,0
2003/1/2 12:30,0,0,0.015953325,0,0,0,2.34194811,0
2003/1/2 12:45,0,0,0.018140203,0,0,0,2.662981727,0
2003/1/2 13:00,0,0,0.01494494,0,0,0,2.193917192,0
2003/1/2 13:15,0,0,0,0,0,0,0,0
2003/1/2 13:30,0,0,0,0,0,0,0,0
2003/1/2 13:45,0,0,0,0,0,0,0,0
2003/1/2 14:00,0,0,0,0,0,0,0,0
2003/1/2 14:15,0,0,0,0,0,0,0,0
2003/1/2 14:30,0,0,0,0,0,0,0,0
2003/1/2 14:45,0,0,0,0,0,0,0,0
2003/1/2 15:00,0,0,0,0,0,0,0,0
2003/1/2 15:15,0,0,0,0,0,0,0,0
2003/1/2 15:30,0,0,0,0,0,0,0,0
2003/1/2 15:45,0.001054267,0,0,0,0.154766469,0,0,0
2003/1/2 16:00,0.010573778,0,0,0,1.552230537,0,0,0
2003/1/2 16:15,0.010376438,0,0,0,1.523261025,0,0,0
2003/1/2 16:30,0.010589865,0,0,0,1.554592182,0,0,0
2003/1/2 16:45,0.011125042,0,0,0,1.633156239,0,0,0
2003/1/2 17:00,0.010139415,0,0.001414497,0,1.488466122,0,0.207648233,0
2003/1/2 17:15,0.010026803,0,0.031926573,0,1.471934607,0,4.686820844,0
2003/1/2 17:30,0.010187678,0,0.02626092,0,1.495551057,0,3.855103056,0
2003/1/2 17:45,0.010362495,0,0.01337566,0,1.521214266,0,1.963546888,0
2003/1/2 18:00,0.009255675,0,0.014382512,0,1.35873309,0,2.111352835,0
2003/1/2 18:15,0.010052543,0,0.014149573,0,1.475713239,0,2.077157243,0
2003/1/2 18:30,0.00856713,0,0.01329597,0,1.257654684,0,1.951848396,0
2003/1/2 18:45,0.006723502,0,0.008891565,0,0.987010167,0,1.305281742,0
2003/1/2 19:00,0,0,0.0102984,0,0,0,1.51180512,0
2003/1/2 19:15,0,0,0.007921492,0,0,0,1.162875099,0
2003/1/2 19:30,0.001529385,0,0.009165882,0,0.224513718,0,1.345551551,0
2003/1/2 19:45,0.01037751,0,0.007480132,0,1.523418468,0,1.098083451,0
2003/1/2 20:00,0.008667945,0,0.007192023,0,1.272454326,0,1.055788903,0
2003/1/2 20:15,0.009375795,0,0.0078464,0,1.376366706,0,1.15185152,0
2003/1/2 20:30,0.009544178,0,0.00668783,0,1.401085257,0,0.981773444,0
2003/1/2 20:45,0.008533883,0,0.006778248,0,1.252773951,0,0.995046733,0
2003/1/2 21:00,0.009627833,0,0.007303895,0,1.413365811,0,1.072211786,0
2003/1/2 21:15,0.008669018,0,0.012224752,0,1.272611769,0,1.794593667,0
2003/1/2 21:30,0.008617538,0,0.014053025,0,1.265054505,0,2.06298407,0
2003/1/2 21:45,0.007482832,0,0.012442367,0,1.098479811,0,1.826539549,0
2003/1/2 22:00,0.009277125,0,0.007562887,0,1.36188195,0,1.110231885,0
2003/1/2 22:15,0.00887172,0,0,0,1.302368496,0,0,0
2003/1/2 22:30,0.009887378,0,0,0,1.451467017,0,0,0
2003/1/2 22:45,0.00999999,0,0,0,1.467998532,0,0,0
2003/1/2 23:00,0.01033461,0,0,0,1.517120748,0,0,0
2003/1/2 23:15,0.009548467,0,0,0,1.401715029,0,0,0
2003/1/2 23:30,0.010164083,0,0,0,1.492087311,0,0,0
2003/1/2 23:45,0.009251385,0,0,0,1.358103318,0,0,0
2003/1/3 0:00,0.010499775,0,0,0,1.54136697,0,0,0
2003/1/3 0:15,0.010179097,0,0,0,1.494291513,0,0,0
2003/1/3 0:30,0.011125042,0,0,0,1.633156239,0,0,0
2003/1/3 0:45,0.01034319,0,0,0,1.518380292,0,0,0
2003/1/3 1:00,0.011125042,0,0,0,1.633156239,0,0,0
2003/1/3 1:15,0.010940573,0,0,0,1.606076043,0,0,0
2003/1/3 1:30,0.003707633,0,0,0,0.544280451,0,0,0
2003/1/3 1:45,0,0,0,0,0,0,0,0
2003/1/3 2:00,0,0,0,0,0,0,0,0
2003/1/3 2:15,0,0,0,0,0,0,0,0
2003/1/3 2:30,0,0,0,0,0,0,0,0
2003/1/3 2:45,0,0,0,0,0,0,0,0
2003/1/3 3:00,0,0,0,0,0,0,0,0
2003/1/3 3:15,0,0,0,0,0,0,0,0
2003/1/3 3:30,0,0,0,0,0,0,0,0
2003/1/3 3:45,0,0,0,0,0,0,0,0
2003/1/3 4:00,0,0,0,0,0,0,0,0
2003/1/3 4:15,0,0,0,0,0,0,0,0
2003/1/3 4:30,0,0,0,0,0,0,0,0
2003/1/3 4:45,0,0,0,0,0,0,0,0
2003/1/3 5:00,0,0,0,0,0,0,0,0
2003/1/3 5:15,0,0,0,0,0,0,0,0
2003/1/3 5:30,0,0,0,0,0,0,0,0
2003/1/3 5:45,0,0,0,0,0,0,0,0
2003/1/3 6:00,0,0,0,0,0,0,0,0
2003/1/3 6:15,0,0,0,0,0,0,0,0
2003/1/3 6:30,0,0,0,0,0,0,0,0
2003/1/3 6:45,0,0,0,0,0,0,0,0
2003/1/3 7:00,0,0,0,0,0,0,0,0
2003/1/3 7:15,0,0,0,0,0,0,0,0
2003/1/3 7:30,0,0,0,0,0,0,0,0
2003/1/3 7:45,0.006600165,0,0,0,0.968904222,0,0,0
2003/1/3 8:00,0.011126115,0,0,0,1.633313682,0,0,0
2003/1/3 8:15,0.011126115,0,0,0,1.633313682,0,0,0
2003/1/3 8:30,0.011127188,0,0,0,1.633471125,0,0,0
2003/1/3 8:45,0.011126115,0,0.022587518,0,1.633313682,0,3.315847569,0
2003/1/3 9:00,0.011126115,0,0.031316638,0,1.633313682,0,4.597282386,0
2003/1/3 9:15,0.011126115,0,0.02883552,0,1.633313682,0,4.233054337,0
2003/1/3 9:30,0.011125042,0,0.026043305,0,1.633156239,0,3.823157174,0
2003/1/3 9:45,0.011126115,0,0.02107494,0,1.633313682,0,3.093801192,0
2003/1/3 10:00,0.011126115,0,0.019629793,0,1.633313682,0,2.881653539,0
2003/1/3 10:15,0.011125042,0,0.017006153,0,1.633156239,0,2.496503187,0
2003/1/3 10:30,0.011125042,0,0,0,1.633156239,0,0,0
2003/1/3 10:45,0,0,0,0,0,0,0,0
2003/1/3 11:00,0,0,0,0,0,0,0,0
2003/1/3 11:15,0,0,0,0,0,0,0,0
2003/1/3 11:30,0,0,0,0,0,0,0,0
2003/1/3 11:45,0,0,0,0,0,0,0,0
2003/1/3 12:00,0,0,0,0,0,0,0,0
2003/1/3 12:15,0,0,0,0,0,0,0,0
2003/1/3 12:30,0.003583222,0,0.008450205,0,0.526017063,0,1.240490094,0
2003/1/3 12:45,0,0,0.026043305,0,0,0,3.823157174,0
2003/1/3 13:00,0,0,0.02332465,0,0,0,3.42405862,0
2003/1/3 13:15,0,0,0.01929724,0,0,0,2.832834832,0
2003/1/3 13:30,0,0,0.01840226,0,0,0,2.701451768,0
2003/1/3 13:45,0,0,0.013217812,0,0,0,1.940374875,0
2003/1/3 14:00,0.01110252,0,0.010448585,0,1.629849936,0,1.533852278,0
2003/1/3 14:15,0.011125042,0,0.00812838,0,1.633156239,0,1.193246184,0
2003/1/3 14:30,0,0,0.00863104,0,0,0,1.267036672,0
2003/1/3 14:45,0,0,0.00921339,0,0,0,1.352525652,0
2003/1/3 15:00,0,0,0.009326795,0,0,0,1.369173506,0
2003/1/3 15:15,0,0,0.008353658,0,0,0,1.226316921,0
2003/1/3 15:30,0,0,0.008065547,0,0,0,1.184022373,0
2003/1/3 15:45,0,0,0.007654838,0,0,0,1.123730145,0
2003/1/3 16:00,0,0,0.00744182,0,0,0,1.092459176,0
2003/1/3 16:15,0,0,0.006588218,0,0,0,0.967150329,0
2003/1/3 16:30,0,0,0.006807365,0,0,0,0.999321182,0
2003/1/3 16:45,0,0,0.006968278,0,0,0,1.022943137,0
2003/1/3 17:00,0,0,0.006205093,0,0,0,0.910907579,0
2003/1/3 17:15,0,0,0.006122338,0,0,0,0.898759145,0
2003/1/3 17:30,0,0,0.00201677,0,0,0,0.296061836,0
2003/1/3 17:45,0,0,0,0,0,0,0,0
2003/1/3 18:00,0,0,0,0,0,0,0,0
2003/1/3 18:15,0,0,0,0,0,0,0,0
2003/1/3 18:30,0,0,0,0,0,0,0,0
2003/1/3 18:45,0,0,0,0,0,0,0,0
2003/1/3 19:00,0,0,0,0,0,0,0,0
2003/1/3 19:15,0,0,0,0,0,0,0,0
2003/1/3 19:30,0,0,0.005956828,0,0,0,0.874462277,0
2003/1/3 19:45,0,0,0.006263327,0,0,0,0.919456477,0
2003/1/3 20:00,0,0,0.011049325,0,0,0,1.62204091,0
2003/1/3 20:15,0,0,0.007786632,0,0,0,1.143077651,0
2003/1/3 20:30,0,0,0.009778883,0,0,0,1.435539951,0
2003/1/3 20:45,0,0,0.00685947,0,0,0,1.006970196,0
2003/1/3 21:00,0,0,0.006554503,0,0,0,0.962200967,0
2003/1/3 21:15,0,0,0.005953763,0,0,0,0.874012335,0
2003/1/3 21:30,0,0,0.006102415,0,0,0,0.895834522,0
2003/1/3 21:45,0,0,0.003961513,0,0,0,0.581550035,0
2003/1/3 22:00,0.007184678,0,0,0,1.054710657,0,0,0
2003/1/3 22:15,0.007612605,0,0,0,1.117530414,0,0,0
2003/1/3 22:30,0.005716425,0,0,0,0.83917119,0,0,0
2003/1/3 22:45,0,0,0,0,0,0,0,0
2003/1/3 23:00,0,0,0,0,0,0,0,0
2003/1/3 23:15,0,0,0,0,0,0,0,0
2003/1/3 23:30,0,0,0,0,0,0,0,0
2003/1/3 23:45,0,0,0,0,0,0,0,0
2003/1/4 0:00,0,0,0,0,0,0,0,0
2003/1/4 0:15,0,0,0,0,0,0,0,0
2003/1/4 0:30,0,0,0,0,0,0,0,0
2003/1/4 0:45,0,0,0,0,0,0,0,0
2003/1/4 1:00,0,0,0,0,0,0,0,0
2003/1/4 1:15,0,0,0,0,0,0,0,0
2003/1/4 1:30,0,0,0,0,0,0,0,0
2003/1/4 1:45,0,0,0,0,0,0,0,0
2003/1/4 2:00,0,0,0,0,0,0,0,0
2003/1/4 2:15,0,0,0,0,0,0,0,0
2003/1/4 2:30,0,0,0,0,0,0,0,0
2003/1/4 2:45,0,0,0,0,0,0,0,0
2003/1/4 3:00,0,0,0,0,0,0,0,0
2003/1/4 3:15,0,0,0,0,0,0,0,0
2003/1/4 3:30,0,0,0,0,0,0,0,0
2003/1/4 3:45,0,0,0,0,0,0,0,0
2003/1/4 4:00,0,0,0,0,0,0,0,0
2003/1/4 4:15,0,0,0,0,0,0,0,0
2003/1/4 4:30,0,0,0,0,0,0,0,0
2003/1/4 4:45,0,0,0,0,0,0,0,0
2003/1/4 5:00,0,0,0,0,0,0,0,0
2003/1/4 5:15,0,0,0,0,0,0,0,0
2003/1/4 5:30,0,0,0,0,0,0,0,0
2003/1/4 5:45,0,0,0,0,0,0,0,0
2003/1/4 6:00,0,0,0,0,0,0,0,0
2003/1/4 6:15,0,0,0,0,0,0,0,0
2003/1/4 6:30,0,0,0,0,0,0,0,0
2003/1/4 6:45,0,0,0,0,0,0,0,0
2003/1/4 7:00,0,0,0,0,0,0,0,0
2003/1/4 7:15,0,0,0,0,0,0,0,0
2003/1/4 7:30,0,0,0,0,0,0,0,0
2003/1/4 7:45,0.002002358,0,0,0,0.293946081,0,0,0
2003/1/4 8:00,0.011126115,0,0,0,1.633313682,0,0,0
2003/1/4 8:15,0.011126115,0,0,0,1.633313682,0,0,0
2003/1/4 8:30,0.011122898,0,0,0,1.632841353,0,0,0
2003/1/4 8:45,0.003708705,0,0.007299298,0,0.544437894,0,1.071536873,0
2003/1/4 9:00,0,0,0.032211617,0,0,0,4.728665448,0
2003/1/4 9:15,0,0,0.026032577,0,0,0,3.821582376,0
2003/1/4 9:30,0,0,0.009210325,0,0,0,1.35207571,0
2003/1/4 9:45,0,0,0.007262517,0,0,0,1.066137569,0
2003/1/4 10:00,0,0,0.022799003,0,0,0,3.346893567,0
2003/1/4 10:15,0.004966747,0,0.013640783,0,0.729118533,0,2.002466871,0
2003/1/4 10:30,0.003967178,0,0.012171115,0,0.582381657,0,1.786719682,0
2003/1/4 10:45,0.003980048,0,0.00960571,0,0.584270973,0,1.410118228,0
2003/1/4 11:00,0.003967178,0,0,0,0.582381657,0,0,0
2003/1/4 11:15,0.0104676,0,0,0,1.53664368,0,0,0
2003/1/4 11:30,0.00581295,0,0,0,0.85334106,0,0,0
2003/1/4 11:45,0.005999565,0,0,0,0.880736142,0,0,0
2003/1/4 12:00,0.005763615,0,0,0,0.846098682,0,0,0
2003/1/4 12:15,0.00665379,0,0,0,0.976776372,0,0,0
2003/1/4 12:30,0.010728218,0,0,0,1.574902329,0,0,0
2003/1/4 12:45,0.01103817,0,0,0,1.620403356,0,0,0
2003/1/4 13:00,0.011125042,0,0,0,1.633156239,0,0,0
2003/1/4 13:15,0.01110252,0,0.019583818,0,1.629849936,0,2.874904409,0
2003/1/4 13:30,0.010316378,0,0.015945662,0,1.514444217,0,2.340823255,0
2003/1/4 13:45,0.011009212,0,0.017983888,0,1.616152395,0,2.640034685,0
2003/1/4 14:00,0.00912483,0,0,0,1.339525044,0,0,0
2003/1/4 14:15,0.010453658,0,0,0,1.534596921,0,0,0
2003/1/4 14:30,0.01087086,0,0,0,1.595842248,0,0,0
2003/1/4 14:45,0.011125042,0,0,0,1.633156239,0,0,0
2003/1/4 15:00,0.010657433,0,0,0,1.564511091,0,0,0
2003/1/4 15:15,0.006575497,0,0,0,0.965283033,0,0,0
2003/1/4 15:30,0.00797082,0,0,0,1.170116376,0,0,0
2003/1/4 15:45,0.009355417,0,0,0,1.373375289,0,0,0
2003/1/4 16:00,0.009058335,0,0,0,1.329763578,0,0,0
2003/1/4 16:15,0.010773263,0,0,0,1.581514935,0,0,0
2003/1/4 16:30,0.011126115,0,0,0,1.633313682,0,0,0
2003/1/4 16:45,0.011125042,0,0,0,1.633156239,0,0,0
2003/1/4 17:00,0.011126115,0,0,0,1.633313682,0,0,0
2003/1/4 17:15,0.011125042,0,0,0,1.633156239,0,0,0
2003/1/4 17:30,0.011126115,0,0,0,1.633313682,0,0,0
2003/1/4 17:45,0.011125042,0,0,0,1.633156239,0,0,0
2003/1/4 18:00,0.011126115,0,0,0,1.633313682,0,0,0
2003/1/4 18:15,0.011125042,0,0.025920705,0,1.633156239,0,3.805159493,0
2003/1/4 18:30,0.011126115,0,0.024236488,0,1.633313682,0,3.557916365,0
2003/1/4 18:45,0,0,0.016862097,0,0,0,2.475355913,0
2003/1/4 19:00,0,0,0.010350505,0,0,0,1.519454134,0
2003/1/4 19:15,0,0,0.009582722,0,0,0,1.406743663,0
2003/1/4 19:30,0,0,0.00902949,0,0,0,1.325529132,0
2003/1/4 19:45,0,0,0.008491583,0,0,0,1.246564311,0
2003/1/4 20:00,0,0,0.007710008,0,0,0,1.131829101,0
2003/1/4 20:15,0.000934148,0,0.007581278,0,0.137132853,0,1.112931537,0
2003/1/4 20:30,0.011125042,0,0.007654838,0,1.633156239,0,1.123730145,0
2003/1/4 20:45,0.011126115,0,0.006960615,0,1.633313682,0,1.021818282,0
2003/1/4 21:00,0.011125042,0,0.006666375,0,1.633156239,0,0.97862385,0
2003/1/4 21:15,0.011126115,0,0.006598945,0,1.633313682,0,0.968725126,0
2003/1/4 21:30,0.011125042,0,0.007590472,0,1.633156239,0,1.114281363,0
2003/1/4 21:45,0.011125042,0,0.010612563,0,1.633156239,0,1.557924175,0
2003/1/4 22:00,0.011126115,0,0.010419468,0,1.633313682,0,1.529577829,0
2003/1/4 22:15,0.011125042,0,0.005685575,0,1.633156239,0,0.83464241,0
2003/1/4 22:30,0.011126115,0,0,0,1.633313682,0,0,0
2003/1/4 22:45,0.011125042,0,0,0,1.633156239,0,0,0
2003/1/4 23:00,0.011104665,0,0,0,1.630164822,0,0,0
2003/1/4 23:15,0.009672878,0,0,0,1.419978417,0,0,0
2003/1/4 23:30,0.007849627,0,0,0,1.152325317,0,0,0
2003/1/4 23:45,0.008276483,0,0,0,1.214987631,0,0,0
2003/1/5 0:00,0.009174165,0,0,0,1.346767422,0,0,0
2003/1/5 0:15,0.009083003,0,0,0,1.333384767,0,0,0
2003/1/5 0:30,0.00299442,0,0,0,0.439580856,0,0,0
2003/1/5 0:45,0,0,0,0,0,0,0,0
2003/1/5 1:00,0,0,0,0,0,0,0,0
2003/1/5 1:15,0,0,0,0,0,0,0,0
2003/1/5 1:30,0,0,0,0,0,0,0,0
2003/1/5 1:45,0,0,0,0,0,0,0,0
2003/1/5 2:00,0,0,0,0,0,0,0,0
2003/1/5 2:15,0,0,0,0,0,0,0,0
2003/1/5 2:30,0,0,0,0,0,0,0,0
2003/1/5 2:45,0,0,0,0,0,0,0,0
2003/1/5 3:00,0,0,0,0,0,0,0,0
2003/1/5 3:15,0,0,0,0,0,0,0,0
2003/1/5 3:30,0,0,0,0,0,0,0,0
2003/1/5 3:45,0,0,0,0,0,0,0,0
2003/1/5 4:00,0,0,0,0,0,0,0,0
2003/1/5 4:15,0,0,0,0,0,0,0,0
2003/1/5 4:30,0,0,0,0,0,0,0,0
2003/1/5 4:45,0,0,0,0,0,0,0,0
2003/1/5 5:00,0,0,0,0,0,0,0,0
2003/1/5 5:15,0,0,0,0,0,0,0,0
2003/1/5 5:30,0,0,0,0,0,0,0,0
2003/1/5 5:45,0,0,0,0,0,0,0,0
2003/1/5 6:00,0,0,0,0,0,0,0,0
2003/1/5 6:15,0,0,0,0,0,0,0,0
2003/1/5 6:30,0,0,0,0,0,0,0,0
2003/1/5 6:45,0,0,0,0,0,0,0,0
2003/1/5 7:00,0.011040315,0,0.022103247,0,1.620718242,0,3.244756733,0
2003/1/5 7:15,0.011127188,0,0.032508923,0,1.633471125,0,4.772309825,0
2003/1/5 7:30,0.011127188,0,0.032510455,0,1.633471125,0,4.772534792,0
2003/1/5 7:45,0.011127188,0,0.032407777,0,1.633471125,0,4.757461736,0
2003/1/5 8:00,0.011126115,0,0.031831557,0,1.633313682,0,4.672872641,0
2003/1/5 8:15,0.011127188,0,0.03095037,0,1.633471125,0,4.543514316,0
2003/1/5 8:30,0.011126115,0,0.02854741,0,1.633313682,0,4.190759788,0
2003/1/5 8:45,0.011126115,0,0.03182083,0,1.633313682,0,4.671297842,0
2003/1/5 9:00,0.011126115,0,0.03232349,0,1.633313682,0,4.745088331,0
2003/1/5 9:15,0.00941226,0,0.032386323,0,1.381719768,0,4.754312143,0
2003/1/5 9:30,0.007952587,0,0.031928105,0,1.167439845,0,4.687045816,0
2003/1/5 9:45,0.00708279,0,0.010824047,0,1.039753572,0,1.588970173,0
2003/1/5 10:00,0.009469103,0,0,0,1.390064247,0,0,0
2003/1/5 10:15,0.007393815,0,0,0,1.085412042,0,0,0
2003/1/5 10:30,0.00855426,0,0,0,1.255765368,0,0,0
2003/1/5 10:45,0.010093298,0,0,0,1.481696073,0,0,0
2003/1/5 11:00,0.010166227,0,0,0,1.492402197,0,0,0
2003/1/5 11:15,0.00852423,0,0,0,1.251356964,0,0,0
2003/1/5 11:30,0.006832897,0,0.031800907,0,1.003069353,0,4.66837322,0
2003/1/5 11:45,0.00497211,0,0.032101277,0,0.729905748,0,4.712467536,0
2003/1/5 12:00,0.003969322,0,0.032046107,0,0.582696543,0,4.70436858,0
2003/1/5 12:15,0.003980048,0,0.031574097,0,0.584270973,0,4.635077512,0
2003/1/5 12:30,0.002645858,0,0.030059987,0,0.388411881,0,4.412806164,0
2003/1/5 12:45,0,0,0.030928915,0,0,0,4.540364723,0
2003/1/5 13:00,0,0,0.019176172,0,0,0,2.815062123,0
2003/1/5 13:15,0,0,0,0,0,0,0,0
2003/1/5 13:30,0,0,0,0,0,0,0,0
2003/1/5 13:45,0,0,0,0,0,0,0,0
2003/1/5 14:00,0,0,0,0,0,0,0,0
2003/1/5 14:15,0,0,0,0,0,0,0,0
2003/1/5 14:30,0,0,0,0,0,0,0,0
2003/1/5 14:45,0,0,0,0,0,0,0,0
2003/1/5 15:00,0,0,0,0,0,0,0,0
2003/1/5 15:15,0,0,0,0,0,0,0,0
2003/1/5 15:30,0,0,0,0,0,0,0,0
2003/1/5 15:45,0,0,0,0,0,0,0,0
2003/1/5 16:00,0,0,0,0,0,0,0,0
2003/1/5 16:15,0,0,0,0,0,0,0,0
2003/1/5 16:30,0,0,0,0,0,0,0,0
2003/1/5 16:45,0,0,0,0,0,0,0,0
2003/1/5 17:00,0,0,0,0,0,0,0,0
2003/1/5 17:15,0,0,0,0,0,0,0,0
2003/1/5 17:30,0,0,0,0,0,0,0,0
2003/1/5 17:45,0,0,0,0,0,0,0,0
2003/1/5 18:00,0,0,0,0,0,0,0,0
2003/1/5 18:15,0,0,0,0,0,0,0,0
2003/1/5 18:30,0.005888025,0,0,0,0.86436207,0,0,0
2003/1/5 18:45,0.00741741,0,0,0,1.088875788,0,0,0
2003/1/5 19:00,0,0,0,0,0,0,0,0
2003/1/5 19:15,0,0,0,0,0,0,0,0
2003/1/5 19:30,0,0,0,0,0,0,0,0
2003/1/5 19:45,0,0,0.021802877,0,0,0,3.200662417,0
2003/1/5 20:00,0.00821106,0,0.024107758,0,1.205383608,0,3.539018801,0
2003/1/5 20:15,0.011127188,0,0.022628895,0,1.633471125,0,3.321921786,0
2003/1/5 20:30,0.011126115,0,0.019876525,0,1.633313682,0,2.91787387,0
2003/1/5 20:45,0.011125042,0,0.016455985,0,1.633156239,0,2.415738598,0
2003/1/5 21:00,0.011126115,0,0.013303632,0,1.633313682,0,1.952973251,0
2003/1/5 21:15,0.011126115,0,0.005722355,0,1.633313682,0,0.840041714,0
2003/1/5 21:30,0.011126115,0,0,0,1.633313682,0,0,0
2003/1/5 21:45,0.00741741,0,0,0,1.088875788,0,0,0
2003/1/5 22:00,0,0,0,0,0,0,0,0
2003/1/5 22:15,0,0,0,0,0,0,0,0
2003/1/5 22:30,0,0,0,0,0,0,0,0
2003/1/5 22:45,0,0,0,0,0,0,0,0
2003/1/5 23:00,0,0,0,0,0,0,0,0
2003/1/5 23:15,0,0,0,0,0,0,0,0
2003/1/5 23:30,0,0,0,0,0,0,0,0
2003/1/5 23:45,0.003720503,0,0,0,0.546169767,0,0,0
2003/1/6 0:00,0.011126115,0,0,0,1.633313682,0,0,0
2003/1/6 0:15,0.011126115,0,0,0,1.633313682,0,0,0
2003/1/6 0:30,0.011127188,0,0,0,1.633471125,0,0,0
2003/1/6 0:45,0.011126115,0,0,0,1.633313682,0,0,0
2003/1/6 1:00,0.003708705,0,0,0,0.544437894,0,0,0
2003/1/6 1:15,0,0,0,0,0,0,0,0
2003/1/6 1:30,0,0,0,0,0,0,0,0
2003/1/6 1:45,0,0,0,0,0,0,0,0
2003/1/6 2:00,0,0,0,0,0,0,0,0
2003/1/6 2:15,0,0,0,0,0,0,0,0
2003/1/6 2:30,0,0,0,0,0,0,0,0
2003/1/6 2:45,0,0,0,0,0,0,0,0
2003/1/6 3:00,0,0,0,0,0,0,0,0
2003/1/6 3:15,0,0,0,0,0,0,0,0
2003/1/6 3:30,0,0,0,0,0,0,0,0
2003/1/6 3:45,0,0,0,0,0,0,0,0
2003/1/6 4:00,0,0,0,0,0,0,0,0
2003/1/6 4:15,0,0,0,0,0,0,0,0
2003/1/6 4:30,0,0,0,0,0,0,0,0
2003/1/6 4:45,0,0,0,0,0,0,0,0
2003/1/6 5:00,0,0,0,0,0,0,0,0
2003/1/6 5:15,0,0,0,0,0,0,0,0
2003/1/6 5:30,0,0,0,0,0,0,0,0
2003/1/6 5:45,0.003458813,0,0,0,0.507753675,0,0,0
2003/1/6 6:00,0.011129333,0,0.020310222,0,1.633786011,0,2.981540663,0
2003/1/6 6:15,0.01112826,0,0.032508923,0,1.633628568,0,4.772309825,0
2003/1/6 6:30,0.011127188,0,0.032510455,0,1.633471125,0,4.772534792,0